Stations météo

réclame
Mon MeteoGroup
Schaffen, Belgique (6465): Température de l'air & dewpoint: 18.11.2017 15:00:00 - 24.11.2017 15:00:00 (CET)Schaffen, Belgique (6465): Vitesse du vent & gusts: 18.11.2017 15:00:00 - 24.11.2017 15:00:00 (CET)Schaffen, Belgique (6465): Direction du vent: 18.11.2017 15:00:00 - 24.11.2017 15:00:00 (CET)Schaffen, Belgique (6465): reduced air pressure: 18.11.2017 15:00:00 - 24.11.2017 15:00:00 (CET)Schaffen, Belgique (6465): visibility: 18.11.2017 15:00:00 - 24.11.2017 15:00:00 (CET)
Date & Time tt [°C] td [°C] ff [km/h] ff [knt] fx [km/h] fx [knt] dd ppp [hPa] vv [km]
24.11.2017 15:00:00 9,6 5,0 7 4 18 10 WSW 1011,8 20
24.11.2017 14:00:00 8,9 5,6 11 6 18 10 W 1011,8 20
24.11.2017 13:00:00 9,4 6,1 11 6 - - WSW 1011,7 20
24.11.2017 12:00:00 8,1 7,1 11 6 14 8 W 1011,6 13
24.11.2017 11:00:00 7,6 6,9 11 6 14 8 W 1010,8 11
24.11.2017 10:00:00 - - - - - - - - -
24.11.2017 09:00:00 7,0 6,8 8 4 11 6 W 1009,3 7
24.11.2017 08:00:00 6,9 6,6 8 4 18 10 WNW 1008,3 8
24.11.2017 07:00:00 7,1 6,8 5 3 - - S 1006,6 5
24.11.2017 06:00:00 7,3 6,9 8 4 29 16 N 1006,8 6
24.11.2017 05:00:00 8,0 7,8 9 5 7 4 WNW 1006,5 5
24.11.2017 04:00:00 8,3 7,9 4 2 - - - 1006,7 2,8
24.11.2017 03:00:00 8,8 7,6 4 2 18 10 - 1007,7 6
24.11.2017 02:00:00 9,5 7,3 8 4 14 8 S 1008,2 10
24.11.2017 01:00:00 9,6 7,5 8 4 - - S 1009,1 10
24.11.2017 00:00:00 10,3 7,2 9 5 18 10 SSW 1009,6 10
23.11.2017 23:00:00 10,3 6,7 11 6 18 10 SSW 1009,7 10
23.11.2017 22:00:00 9,9 6,6 11 6 - - SSW 1010,0 10
23.11.2017 21:00:00 10,1 6,4 11 6 22 12 SSW 1009,7 10
23.11.2017 20:00:00 9,7 5,3 13 7 22 12 SSW 1009,0 10
23.11.2017 19:00:00 10,7 5,2 15 8 - - WSW 1008,2 10
23.11.2017 18:00:00 11,6 7,6 11 6 32 18 WSW 1007,7 10
23.11.2017 17:00:00 11,9 7,8 21 11 32 18 WSW 1006,7 10
23.11.2017 16:00:00 12,3 9,9 16 9 - - WSW 1005,5 10
23.11.2017 15:00:00 12,1 10,6 21 11 61 33 W 1004,2 10
23.11.2017 14:00:00 15,3 9,1 24 13 40 21 SSW 1002,5 10
23.11.2017 13:00:00 14,5 9,0 26 14 - - SSW 1002,2 10
23.11.2017 12:00:00 14,5 8,3 29 16 54 29 SSW 1001,6 10
23.11.2017 11:00:00 14,0 7,3 29 16 50 27 SSW 1001,0 10
23.11.2017 10:00:00 14,2 6,8 34 18 - - SSW 999,8 10
23.11.2017 09:00:00 14,1 5,8 31 17 58 31 SSW 998,5 10
23.11.2017 08:00:00 13,6 5,2 34 18 54 29 S 997,8 10
23.11.2017 07:00:00 12,9 4,5 26 14 - - S 997,7 10
23.11.2017 06:00:00 12,4 4,2 26 14 47 25 S 998,3 10
23.11.2017 05:00:00 11,8 3,9 28 15 40 21 S 999,0 10
23.11.2017 04:00:00 11,3 3,6 28 15 - - S 999,4 10
23.11.2017 03:00:00 11,9 3,0 24 13 47 25 S 1000,0 10
23.11.2017 02:00:00 11,6 2,9 26 14 47 25 S 999,8 10
23.11.2017 01:00:00 12,0 2,9 28 15 - - S 1000,6 10
23.11.2017 00:00:00 12,1 2,6 22 12 32 18 S 1001,5 10
22.11.2017 23:00:00 11,6 2,5 22 12 32 18 S 1001,8 10
22.11.2017 22:00:00 10,7 2,6 21 11 - - S 1002,1 10
22.11.2017 21:00:00 10,4 3,1 15 8 25 14 S 1002,7 10
22.11.2017 20:00:00 9,9 3,9 18 10 32 18 S 1003,2 10
22.11.2017 19:00:00 10,0 4,6 22 12 - - S 1004,0 10
22.11.2017 18:00:00 10,0 4,9 21 11 29 16 S 1004,3 10
22.11.2017 17:00:00 11,2 5,2 18 10 29 16 S 1005,0 10
22.11.2017 16:00:00 12,6 6,5 16 9 - - S 1005,7 10
22.11.2017 15:00:00 13,1 6,3 22 12 32 18 S 1006,0 10
22.11.2017 14:00:00 12,9 6,8 21 11 36 19 SSW 1006,7 10
22.11.2017 13:00:00 12,6 6,7 22 12 - - SSW 1007,2 10
22.11.2017 12:00:00 11,8 7,0 21 11 40 21 SSW 1008,2 10
22.11.2017 11:00:00 10,5 6,8 22 12 36 19 SSW 1008,5 10
22.11.2017 10:00:00 10,1 6,9 18 10 - - SSW 1008,7 10
22.11.2017 09:00:00 10,1 7,2 16 9 32 18 SSW 1008,7 10
22.11.2017 08:00:00 10,1 7,1 21 11 32 18 SSW 1008,5 10
22.11.2017 07:00:00 10,1 7,2 18 10 - - SSW 1008,2 10
22.11.2017 06:00:00 10,3 7,2 21 11 32 18 SSW 1008,5 10
22.11.2017 05:00:00 10,3 7,4 18 10 36 19 SSW 1009,0 10
22.11.2017 04:00:00 10,2 7,0 21 11 - - SSW 1008,8 10
22.11.2017 03:00:00 10,3 7,1 22 12 36 19 SSW 1009,1 10
22.11.2017 02:00:00 10,1 7,2 22 12 32 18 SSW 1009,7 10
22.11.2017 01:00:00 10,1 7,1 22 12 - - SSW 1010,2 10
22.11.2017 00:00:00 9,8 7,0 18 10 32 18 SSW 1010,5 10
21.11.2017 23:00:00 9,8 6,9 16 9 32 18 SSW 1010,7 10
21.11.2017 22:00:00 9,8 7,0 16 9 - - SSW 1011,1 10
21.11.2017 21:00:00 9,8 6,7 21 11 36 19 SSW 1011,2 10
21.11.2017 20:00:00 9,6 7,0 22 12 36 19 SSW 1011,3 10
21.11.2017 19:00:00 9,6 7,3 18 10 - - SSW 1012,2 10
21.11.2017 18:00:00 9,8 7,4 21 11 32 18 SSW 1012,2 10
21.11.2017 17:00:00 10,0 7,4 15 8 29 16 SSW 1012,3 10
21.11.2017 16:00:00 10,3 7,8 15 8 - - SW 1012,7 10
21.11.2017 15:00:00 10,3 8,1 13 7 29 16 SSW 1012,8 8
21.11.2017 14:00:00 10,4 8,7 15 8 32 18 SW 1013,2 8
21.11.2017 13:00:00 10,3 9,3 13 7 - - SW 1013,3 5
21.11.2017 12:00:00 10,6 9,5 16 9 36 19 SW 1013,6 5
21.11.2017 11:00:00 10,5 9,8 15 8 32 18 SW 1013,6 5
21.11.2017 10:00:00 10,5 10,0 16 9 - - SW 1013,5 2,0
21.11.2017 09:00:00 10,5 10,1 15 8 25 14 SW 1012,8 1,6
21.11.2017 08:00:00 10,4 10,1 11 6 25 14 SW 1012,8 3,5
21.11.2017 07:00:00 10,5 10,2 11 6 - - SW 1012,7 2,0
21.11.2017 06:00:00 10,5 10,2 9 5 18 10 SW 1012,7 2,5
21.11.2017 05:00:00 10,5 10,3 9 5 22 12 SW 1013,1 2,5
21.11.2017 04:00:00 10,5 9,9 11 6 - - SW 1013,0 10
21.11.2017 03:00:00 10,3 9,9 11 6 22 12 SW 1013,3 5
21.11.2017 02:00:00 10,6 10,1 11 6 25 14 SW 1013,2 7
21.11.2017 01:00:00 10,3 10,0 15 8 - - WSW 1013,2 4,5
21.11.2017 00:00:00 10,1 9,6 11 6 25 14 SW 1013,2 4,5
20.11.2017 23:00:00 10,1 9,1 15 8 29 16 SW 1013,0 10
20.11.2017 22:00:00 9,8 8,9 15 8 - - WSW 1013,1 10
20.11.2017 21:00:00 9,8 9,1 22 12 36 19 WSW 1013,1 10
20.11.2017 20:00:00 9,6 8,9 16 9 32 18 SW 1012,8 8
20.11.2017 19:00:00 9,5 8,8 15 8 - - SW 1013,0 3,5
20.11.2017 18:00:00 9,1 8,5 15 8 25 14 SW 1013,1 5
20.11.2017 17:00:00 8,5 8,0 15 8 29 16 SW 1013,6 4,0
20.11.2017 16:00:00 7,6 7,0 18 10 - - SW 1013,8 8
20.11.2017 15:00:00 7,0 6,6 15 8 32 18 SSW 1014,7 4,0
20.11.2017 14:00:00 6,3 5,9 13 7 29 16 SSW 1016,0 2,5
20.11.2017 13:00:00 5,5 5,2 16 9 - - SSW 1016,8 2,0
20.11.2017 12:00:00 5,1 4,2 18 10 29 16 S 1018,0 4,0
20.11.2017 11:00:00 4,5 3,4 15 8 25 14 SSW 1019,0 10
20.11.2017 10:00:00 3,9 2,5 15 8 - - S 1019,7 10
20.11.2017 09:00:00 3,7 2,0 11 6 18 10 S 1020,7 10
20.11.2017 08:00:00 3,9 1,2 8 4 14 8 SSW 1021,5 10
20.11.2017 07:00:00 3,7 1,3 8 4 - - SSW 1021,5 10
20.11.2017 06:00:00 3,8 1,3 9 5 14 8 SW 1021,7 10
20.11.2017 05:00:00 3,5 1,2 8 4 14 8 SW 1021,7 10
20.11.2017 04:00:00 3,2 1,3 11 6 - - SW 1022,2 10
20.11.2017 03:00:00 3,4 1,5 11 6 18 10 SW 1022,5 10
20.11.2017 02:00:00 3,4 1,5 11 6 18 10 SW 1022,8 10
20.11.2017 01:00:00 3,2 1,6 9 5 - - SW 1023,5 10
20.11.2017 00:00:00 2,9 1,5 9 5 14 8 SW 1023,6 10
19.11.2017 23:00:00 3,7 1,8 11 6 18 10 WSW 1023,6 10
19.11.2017 22:00:00 4,3 2,0 15 8 - - WSW 1023,6 10
19.11.2017 21:00:00 4,3 2,2 13 7 18 10 WSW 1023,2 10
19.11.2017 20:00:00 5,5 2,9 11 6 18 10 WSW 1022,7 10
19.11.2017 19:00:00 5,5 3,7 4 2 - - - 1022,5 10
19.11.2017 18:00:00 6,0 2,9 15 8 25 14 W 1022,0 10
19.11.2017 17:00:00 5,8 3,4 11 6 25 14 W 1021,6 10
19.11.2017 16:00:00 6,2 3,8 11 6 - - W 1021,2 10
19.11.2017 15:00:00 6,4 4,3 15 8 36 19 W 1021,2 10
19.11.2017 14:00:00 7,9 3,5 22 12 32 18 W 1021,0 10
19.11.2017 13:00:00 7,9 3,8 16 9 - - W 1020,6 10
19.11.2017 12:00:00 6,8 2,7 22 12 32 18 W 1020,6 10
19.11.2017 11:00:00 6,3 3,4 16 9 29 16 W 1020,3 10
19.11.2017 10:00:00 4,9 2,2 15 8 - - W 1019,7 9
19.11.2017 09:00:00 4,3 2,9 13 7 25 14 WSW 1019,6 10
19.11.2017 08:00:00 4,8 1,4 15 8 22 12 W 1018,7 10
19.11.2017 07:00:00 4,2 0,8 15 8 - - W 1018,3 10
19.11.2017 06:00:00 4,4 0,5 15 8 22 12 W 1017,8 10
19.11.2017 05:00:00 4,1 0,1 9 5 14 8 W 1017,8 10
19.11.2017 04:00:00 5,3 1,4 13 7 - - WNW 1017,5 10
19.11.2017 03:00:00 5,1 1,9 11 6 18 10 W 1017,2 10
19.11.2017 02:00:00 6,2 4,5 13 7 18 10 W 1016,8 10
19.11.2017 01:00:00 6,2 5,2 11 6 - - W 1017,1 10
19.11.2017 00:00:00 6,0 5,2 11 6 29 16 W 1017,2 10
18.11.2017 23:00:00 6,3 5,0 15 8 25 14 NW 1017,3 10
18.11.2017 22:00:00 7,1 5,5 8 4 - - NNW 1017,7 10
18.11.2017 21:00:00 7,1 5,4 9 5 22 12 SW 1017,7 10
18.11.2017 20:00:00 7,3 5,3 13 7 22 12 WSW 1018,1 10
18.11.2017 19:00:00 7,0 4,5 9 5 - - SW 1018,7 10
18.11.2017 18:00:00 7,6 4,4 15 8 25 14 WSW 1018,8 10
18.11.2017 17:00:00 7,2 3,3 13 7 32 18 WSW 1019,2 10
18.11.2017 16:00:00 7,9 3,0 18 10 - - WSW 1019,3 10
18.11.2017 15:00:00 7,5 2,4 21 11 32 18 WSW 1019,7 10

tt = Température de l'air
td = dewpoint
ff = Vitesse du vent
fx = gusts
dd = Direction du vent
ppp = reduced air pressure
vv = visibility

stations d'obs. à proximité